Regional Weather Roundup
Issued by NWS New Orleans/Baton Rouge, LA

Home | Current Version | Previous Version | Graphics & Text | Print | Product List | Glossary On
Versions: 1 2 3 4 5 6 7 8 9 10 11 12 13 14 15 16 17 18 19 20 21 22 23 24 25 26 27 28 29 30 31 32 33 34 35 36 37 38 39 40 41 42 43 44 45 46 47 48 49 50
516
ASUS44 KLIX 012201
RWRLIX
NEW ORLEANS REGIONAL WEATHER ROUNDUP
NATIONAL WEATHER SERVICE NEW ORLEANS LA
500 PM CDT WED OCT 01 2014

NOTE: "FAIR" INDICATES FEW OR NO CLOUDS BELOW 12,000 FEET WITH NO
      SIGNIFICANT WEATHER AND/OR OBSTRUCTIONS TO VISIBILITY.
      SKY/WX - SKY CONDITION AND SIGNIFICANT WEATHER.
      TMP - AIR TEMPERATURE.     DP    - DEWPOINT TEMPERATURE.
      RH  - RELATIVE HUMIDITY.   PRES  - PRESSURE.
      HI  - HEAT INDEX.          WCI   - WIND CHILL INDEX.

*  THESE STATIONS ARE NOT NWS OR FAA STATIONS AND ARE NOT UNDER
   NWS QUALITY CONTROL.

LAZ038-040-048-061>063-065>067-069-012300-
SOUTHEAST LOUISIANA

CITY           SKY/WX    TMP DP  RH WIND       PRES   REMARKS
N.O. AUDUBON     N/A     84  76  76 MISG        N/A
N.O. INTL ARPT PTSUNNY   83  73  72 SE9       29.88F
N.O. LAKEFRONT CLOUDY    82  74  76 E12       29.89S
N.O. DOWNTOWN* MOCLDY    82  72  69 SE9       29.89F
SLIDELL        PTSUNNY   81  72  74 E5        29.89F
BATON ROUGE    CLOUDY    84  73  69 SE8       29.86F
BOOTHVILLE     CLOUDY    81  77  88 SE6       29.91R
BELLE CHASSE   PTSUNNY   82  73  74 SE12      29.88F
BOGALUSA*      MOCLDY    85  71  63 SE9       29.91S
GALLIANO*      NOT AVBL
NEW ROADS*     MOCLDY    85  74  70 SE7       29.85F
GONZALES*      MOCLDY    79  79 100 E3        29.87F
HAMMOND*       NOT AVBL
HOUMA*         PTSUNNY  N/A N/A N/A SE6       29.89R
PORT FOURCHON* PTCLDY    81  75  83 S6        29.92S

$$

MSZ070-080>082-012300-
SOUTHERN MISSISSIPPI

CITY           SKY/WX    TMP DP  RH WIND       PRES   REMARKS
MCCOMB         PTSUNNY   83  71  67 S9        29.89S
GULFPORT       PTSUNNY   81  73  76 SE13      29.91S
BILOXI         PTSUNNY   82  74  76 SE8       29.91S
PASCAGOULA     PTSUNNY   81  73  76 SE8       29.92S
STENNIS ARPT*  PTSUNNY   81  70  69 SE6       29.91S

$$

COASTAL OBSERVATIONS
LAKE AND NEARSHORE STATIONS

STATION/POSITION TIME  TEMP    WIND        PRES    WAVE
                       AIR SEA DIR/SP/G            HT/PER
                 (UTC) (F)     (DEG/KT/KT) (MB)    (FT/S)
PASCAGOULA       2100   81     120/  8/ 11 1012.5
WAVELAND YACHT   2100   80     130/  9/ 10 1012.1
GRAND ISLE       2100   79 81  180/  2/  4 1013.1
SOUTHWEST PASS   2100   82 85  160/  6/  8 1013.0
NEW CANAL        2100   83 78  130/  2/  6 1012.4
SHELL BEACH      2100   81 76  130/ 11/ 13 1012.2

OFFSHORE STATIONS

STATION/POSITION TIME  TEMP    WIND        PRES    WAVE
                       AIR SEA DIR/SP/G            HT/PER
                 (UTC) (F)     (DEG/KT/KT) (MB)    (FT/S)
64 S DAUPHIN ISL 2149   81 83  130/  8/ 10 1013.2    1/ 5

$$




USA.gov is the U.S. government's official web portal to all federal, state and local government web resources and services.